NOAA 16 DEB, 41072

Orbit data source: Space-Track

NOAA 16 DEB, 41072 is space debris in SSO originally from a launch on Thu, 21 Sep 2000 UTC launched from the Air Force Western Test Range (AFWTR). Debris objects in space refer to the collection of defunct objects orbiting the Earth. Examples of debris include non-operational satellites, rocket bodies, and fragments generated from explosions, collisions, or faulty payload assembly.

Loading next visibility...
Identifier
41072, 2000-055AF
Orbit
SSO
Country
Flag of USUS
Related business
Manufacturer
Unknown
Mission
Spacecraft
Bus & Motor
Unknown
Mass
Unknown
Launch date (UTC)
2000-09-21 (25 years ago)
Launch vehicle
Unknown
Launch site
Air Force Western Test Range (AFWTR)
Object type
Payload
Rocket body
Debris
Shape & HBR
Unknown
Radar Cross Section
Small (<0.1 m²)

Expand to show TLE details & history
Last TLE update: 1 day ago

TLE from 1 day ago
0 NOAA 16 DEB
1 41072U 00055AF  25241.54091651  .00000496  00000-0  59970-3 0  9991
2 41072  98.8577 333.5000 0285813 148.3068 213.5637 13.54547120481902
Epoch: 2025-08-29T12:58Z
TLE epoch observation values (Epoch: 2025-08-29T12:58:55.186Z)
Latitude
-0.00001°
Longitude
160.78197°
Altitude
1,237.267 km
Speed
7.149 km/s
True Right ascension
22h 14m 00s
True Declination
0° 00' 00"
Sunlit
Object was in full shadow at epoch
Visualization orbit readout
Latitude
Unknown
Longitude
Unknown
Altitude
Unknown
Speed
Unknown
Apparent Right ascension
Unknown
Apparent Declination
Unknown
Sunlit
N/A
Visualization observer readout
Local Sidereal Time
15:44:39
Azimuth
Unknown
Elevation
Unknown
Doppler factor
Unknown
Orbital elements
Apogee altitude
1,265.212 km
Perigee altitude
840.439 km
Semi-major axis
7,430.963 km
Eccentricity
0.02858
Inclination
98.8577°
RAAN
333.5°
Arg. of periapsis
148.3068°
True anomaly
211.80565°
Mean anomaly
213.5637°
Eccentric anomaly
212.6795°
Mean motion
3.38825 °/min
Orbital period
106.25 mins
BSTAR
0.0005997
Loading maneuver chart data...
Computing Atmospheric mass density...
Loading historical data...
Loading historical data...
Loading historical data...
Loading historical data...
Loading historical data...
Loading historical data...
Loading historical data...

Documentation

Showing up to 5 results
|